Regional Weather Roundup
Issued by NWS Northern Indiana

Home | Current Version | Previous Version | Text Only | Print | Product List | Glossary On
Versions: 1 2 3 4 5 6 7 8 9 10 11 12 13 14 15 16 17 18 19 20 21 22 23 24 25 26 27 28
000
ASUS43 KIWX 200410
RWRIWX

KIWX WEATHER ROUNDUP
NATIONAL WEATHER SERVICE NORTHERN INDIANA
1200 AM EDT SAT APR 20 2024

NOTE: "FAIR" INDICATES FEW OR NO CLOUDS BELOW 12,000 FEET WITH NO
SIGNIFICANT WEATHER AND/OR OBSTRUCTIONS TO VISIBILITY.

* THESE STATIONS ARE NOT UNDER NWS QUALITY CONTROL. THEY ALSO MAY NOT
  REPORT WEATHER SUCH AS PRECIPITATION OR FOG.

INZ001>027-200500-
NORTHERN INDIANA

CITY           SKY/WX    TMP DP  RH WIND       PRES   REMARKS
GARY*          PTCLDY    48  28  46 NW21G29   30.12R
VALPARAISO     MOCLDY    48  29  47 W12       30.11R
MICHIGAN CITY* PTCLDY    45  32  61 MISG      30.12R
LAPORTE*       MOCLDY    47  27  44 W9        30.11R
KNOX*          MOCLDY    46  27  46 W10       30.10S
SOUTH BEND     MOCLDY    49  30  48 W10       30.09R
ELKHART*       MOCLDY    48  29  48 W10       30.08S
GOSHEN         MOCLDY    47  31  53 W12       30.08R
MONTICELLO*    PTCLDY    46  33  61 W6        30.13S
LOGANSPORT*    PTCLDY    45  36  70 W8        30.14R
ROCHESTER*     PTCLDY    48  36  61 W7        30.11S
PLYMOUTH*      CLEAR     50  28  43 W8G15     30.09S
WARSAW*        MOCLDY    48  29  48 W10       30.09S
AUBURN*        MOCLDY    50  32  50 SW6       30.08S
FORT WAYNE     CLOUDY    50  34  54 W12       30.09S
HUNTINGTON*    MOCLDY    48  34  59 W8        30.10S
PERU/GRISSOM   CLOUDY    49  35  60 W12       30.10S

$$
INZ028>050-200500-
CENTRAL INDIANA

CITY           SKY/WX    TMP DP  RH WIND       PRES   REMARKS
LAFAYETTE      MOCLDY    49  34  56 W7        30.15R
KOKOMO*        MOCLDY    49  35  58 W9        30.14R
MARION*        MOCLDY    48  38  68 W9        30.14R
MUNCIE*        CLOUDY    50  33  52 W9        30.13R
PORTLAND*      CLOUDY    48  34  57 W9        30.12R
INDIANAPOLIS   CLOUDY    50  32  50 W9        30.17R

$$
MIZ043>046-050>051-056>058-064>065-071>073-077>080-200500-
SOUTHWEST LOWER MICHIGAN

CITY           SKY/WX    TMP DP  RH WIND       PRES   REMARKS
BATTLE CREEK   PTCLDY    45  27  49 W8        30.03S
BENTON HARBOR  PTCLDY    48  32  53 NW20G33   30.09R
COLDWATER*     PTCLDY    43  31  62 SW6       30.04F
HILLSDALE*     PTCLDY    44  15  31 W5        30.03S
HOLLAND        PTCLDY    44  27  51 NW15G29   30.06R
GRAND RAPIDS   MOCLDY    45  30  55 W13G24    30.01S
KALAMAZOO      PTCLDY    45  28  51 W8        30.05S
STURGIS*       MOCLDY    46  29  52 W8        30.05S
THREE RIVERS*  PTCLDY    45  29  53 W6        30.07R

$$
OHZ001>008-015>018-024>025-200500-
NORTHWEST OHIO

CITY           SKY/WX    TMP DP  RH WIND       PRES   REMARKS
WAUSEON*       MOCLDY    46  32  57 W7        30.05S
DEFIANCE       MOCLDY    49  35  58 SW5       30.07S
FINDLAY        PTCLDY    49  35  58 SW7       30.06S
TOLEDO EXPRESS MOCLDY    49  28  44 SW5       30.05S
VAN WERT*      CLOUDY    48  34  57 SW7       30.10S
LIMA           MOCLDY    50  35  56 W12       30.09R

$$
AND FOR LAKE MICHIGAN COASTAL AND OPEN LAKE BUOY OBSERVATIONS

STATION/POSITION TEMP    WIND        PRES    VSBY  WAVE
                 AIR SEA DIR/SP/G                  HT/PER
                 (F)     (DEG/KT/KT) (MB)    (MI)  (FT/S)
CALUMET HARBOR    49     270/  8/ 15 1018.7R
BURNS HARBOR      50     300/  8/ 13 1020.0R
SAINT JOSEPH      47     300/ 16/ 22 1020.3

$$
&&



USA.gov is the U.S. government's official web portal to all federal, state and local government web resources and services.